Volver al catálogo

STARLINK-34883

ActivoComunicacionesVLEO
NORAD 65426·PAYLOAD·🇺🇸 United States

Lanzado Aug 31, 2025 desde Cape Canaveral Space Force Station

Loading…

Próximos Pases (próximas 24 horas)

TLE

ActualizadoSource: CelesTrak SupGP

Época: Sep 15, 2026, 02:45 UTC

1 65426C 25192Y   26258.11506944 -.00028350  00000+0 -91166-3 0  2588
2 65426  53.1573  71.2584 0001209  87.8700 263.0661 15.31716354    19

Sigue STARLINK-34883 en tiempo real con AllMySat

Download on the App Store